Wind_Speed
9 8 9 9 9 9 9 10 10 10 9 8 8 7 7 7 7 7 7 7 6 6 6 6 7 7 8 9 10 10 10 10 10 10 10 10 11 12 12 12 12 13 13 13 13 13 13 13 13 12 11 10 11 11 11 11 12 13 14 14 14 15 15 15 15 16 16 16 16
9 10 10 10 10 10 9 9 9 9 9 9 8 8 7 7 7 6 6 6 6 6 5 5 6 7 8 9 9 10 10 10 11 11 11 11 11 12 12 13 13 13 13 13 13 13 13 14 13 12 11 11 11 12 12 12 12 13 14 15 15 15 14 15 15 15 16 16 16
10 10 10 10 9 9 9 9 8 8 8 8 8 7 7 7 7 6 6 5 6 6 5 5 6 7 8 9 10 10 11 11 12 12 11 11 12 12 12 13 13 13 13 13 13 13 13 14 13 12 11 11 12 12 12 12 13 14 15 15 15 14 14 14 15 15 16 15 16
10 10 10 10 10 9 9 8 8 7 7 7 7 7 6 7 7 6 5 5 5 6 6 6 7 8 9 9 10 10 11 12 12 12 12 12 12 12 13 13 13 13 13 13 13 13 13 13 12 11 11 11 12 12 13 13 14 14 14 15 14 14 14 15 15 15 15 16 16
9 10 10 9 9 9 8 8 7 7 7 7 6 6 6 6 7 6 6 5 5 6 7 7 8 9 9 10 10 11 11 12 12 12 12 12 12 12 13 13 13 13 13 13 13 13 14 13 12 11 11 12 12 12 13 14 14 15 15 15 14 14 15 15 15 15 16 16 16
9 9 9 9 8 8 7 7 6 6 6 6 5 5 5 6 6 6 6 5 6 7 8 8 9 9 10 11 11 11 11 11 12 12 12 12 12 12 13 13 13 13 13 13 13 13 13 13 12 11 11 12 12 12 13 14 14 15 15 15 15 15 15 15 16 16 16 17 18
8 8 8 7 7 7 6 6 6 6 6 5 5 5 5 6 6 6 6 6 6 8 9 9 10 10 11 11 11 11 11 11 11 11 12 12 12 12 13 13 13 13 13 13 13 13 13 13 12 11 12 12 12 13 13 14 15 15 16 16 16 15 15 16 16 16 17 18 19
7 7 7 6 6 6 6 6 5 5 5 5 5 5 5 6 7 7 7 7 8 9 10 10 11 11 12 12 12 12 12 11 11 11 11 11 12 12 13 13 13 13 13 13 13 13 13 12 12 11 12 12 13 14 14 15 15 16 16 17 17 16 16 16 17 18 19 20 21
6 6 6 5 5 5 5 5 5 5 4 4 5 6 6 7 8 8 8 8 9 10 11 11 11 12 12 12 12 12 12 12 12 11 12 12 12 12 13 13 13 13 13 13 13 13 13 12 12 12 12 13 14 15 15 16 17 17 17 17 17 17 17 18 18 19 20 21 21
5 5 5 4 5 5 5 4 5 5 5 5 6 6 8 9 9 9 9 10 11 11 10 11 12 12 12 11 11 11 11 12 12 12 12 12 12 12 13 13 13 14 14 14 14 13 13 13 12 13 13 14 15 16 17 17 17 18 18 17 18 19 19 19 20 20 21 21 21
4 4 3 4 4 4 4 4 4 5 5 5 6 7 8 10 10 10 11 11 11 10 10 12 12 12 12 11 11 11 11 11 12 12 12 12 12 12 13 13 13 14 14 14 14 13 13 13 14 14 15 16 16 17 17 17 17 18 19 19 19 20 21 21 21 21 21 21 22
3 3 3 3 4 4 4 3 4 5 5 6 7 8 9 10 10 11 11 11 10 10 11 12 12 12 12 11 11 12 12 12 12 12 12 12 12 13 13 13 13 14 14 14 14 14 13 14 15 16 17 17 17 17 17 18 19 19 20 20 20 21 21 22 22 22 22 22 23
3 3 3 3 4 4 4 4 4 5 6 7 8 8 9 10 11 11 11 11 11 11 12 12 12 12 12 11 12 12 12 12 12 12 12 12 12 13 13 13 14 14 14 14 14 14 14 15 16 17 17 18 18 18 18 19 20 20 20 21 21 22 22 23 23 23 23 24 24
3 3 3 3 4 4 4 4 5 5 6 7 8 9 10 10 11 12 12 11 12 12 12 12 12 11 11 12 12 12 12 12 12 12 12 12 12 13 13 14 14 14 15 15 15 15 15 16 16 17 18 19 19 19 19 20 20 20 21 21 22 23 23 24 24 24 24 25 25
3 3 4 4 4 4 4 4 5 5 6 7 8 9 10 10 11 12 12 12 12 12 12 12 11 12 12 12 12 12 12 12 12 12 12 13 13 13 14 14 15 15 15 15 15 15 16 16 17 17 18 19 20 20 20 20 20 21 21 22 23 24 24 25 25 25 25 25 25
3 3 4 4 4 5 5 5 5 6 7 8 9 10 10 10 11 12 12 13 13 12 12 12 12 12 12 12 12 12 12 12 12 12 13 13 13 14 15 15 15 16 16 16 17 16 16 16 17 18 18 19 20 21 21 21 21 22 22 23 24 24 25 25 26 26 26 26 26
2 3 4 4 5 5 5 6 6 6 7 8 9 10 10 11 11 12 12 13 13 13 12 13 13 12 12 12 12 12 12 12 12 12 13 14 14 15 15 15 16 16 16 17 17 17 17 17 17 18 19 20 20 21 21 22 22 23 23 24 24 25 25 26 26 26 26 26 26
2 3 4 4 5 5 6 6 6 7 8 9 10 10 11 11 12 12 13 13 13 13 13 14 13 13 12 12 12 12 12 12 13 13 14 14 15 15 16 16 16 16 17 17 17 17 18 18 19 19 19 20 20 21 22 22 23 24 24 25 25 25 26 26 26 26 26 26 26
3 3 4 4 5 6 6 7 7 8 9 9 10 11 11 12 12 12 13 13 13 14 14 14 14 13 13 13 13 13 13 13 13 14 14 15 15 16 16 16 16 17 17 17 17 17 18 18 19 20 20 21 21 22 23 23 24 24 25 25 25 26 26 26 26 26 26 26 26
3 4 4 5 5 6 6 7 8 8 9 10 11 11 12 12 13 13 13 13 14 14 15 14 14 14 14 14 14 14 13 14 14 15 15 15 16 16 16 16 17 17 17 17 17 17 18 19 20 20 21 22 22 23 24 24 24 24 25 25 25 26 26 26 26 26 26 26 26
3 4 5 5 6 6 7 7 8 9 10 10 11 12 12 13 13 13 14 14 15 15 15 14 14 14 14 14 14 14 14 14 14 15 15 16 16 16 16 16 17 17 17 17 17 17 18 19 20 21 21 22 23 23 24 24 25 25 25 25 26 26 26 26 26 26 26 26 25
4 4 5 6 6 7 7 8 9 9 10 11 12 12 13 13 13 14 14 15 15 15 14 14 14 14 15 15 15 15 15 15 15 15 15 16 16 16 16 16 17 17 17 17 17 17 18 19 20 21 22 23 23 24 24 25 25 26 26 26 26 27 27 27 26 26 26 25 25
4 5 6 7 7 8 8 9 10 10 11 11 12 13 13 14 14 15 15 15 14 14 14 14 14 15 15 15 15 15 15 15 16 15 15 16 16 16 16 16 17 17 17 16 17 18 19 20 21 22 22 23 23 24 25 25 25 26 26 27 27 27 27 26 26 25 25 25 24
5 6 6 7 8 8 9 10 10 11 11 12 13 13 14 14 15 15 15 15 14 14 14 14 14 15 15 15 15 15 15 16 16 16 16 16 16 16 17 17 16 16 16 16 17 18 19 20 21 22 23 23 23 24 25 25 25 26 26 27 27 27 27 26 25 25 24 24 24
5 6 7 7 8 9 9 10 11 11 12 13 13 14 14 14 15 15 15 14 14 14 14 15 15 15 15 14 14 14 14 15 16 17 17 17 17 17 17 17 17 17 16 16 17 19 20 21 22 23 23 24 24 25 25 25 25 26 26 26 27 27 27 26 25 24 24 24 24
6 7 7 8 9 9 10 10 11 12 13 13 14 14 14 14 14 14 14 14 14 15 15 15 14 14 14 14 14 14 14 15 16 16 17 17 18 18 17 17 17 16 16 17 19 21 22 23 23 23 24 24 25 26 26 26 26 25 26 26 26 26 25 25 25 25 24 24 24
7 7 8 9 9 9 10 11 11 12 13 13 14 14 14 14 14 14 14 14 14 15 14 14 14 14 14 13 14 14 15 16 16 16 17 17 18 18 18 18 17 17 17 19 21 22 23 23 24 24 25 25 25 26 26 26 26 26 25 25 25 24 24 24 25 25 25 25 25
7 8 9 9 9 9 10 11 11 12 13 13 14 14 14 14 14 14 14 14 14 14 14 13 13 13 13 13 14 15 16 16 17 17 17 17 18 18 18 18 18 18 19 20 21 22 23 24 24 25 25 25 25 25 25 26 25 25 25 24 24 24 24 24 24 25 25 26 26
7 8 9 9 9 9 10 11 11 12 13 13 14 14 14 14 14 13 14 14 14 14 13 13 13 13 13 14 15 16 16 16 17 17 17 18 18 19 19 19 19 20 20 21 22 22 23 24 25 26 26 26 25 25 25 24 24 24 24 23 23 23 23 24 24 25 25 26 26
8 9 9 9 9 9 10 11 12 13 13 13 14 14 14 13 13 13 14 14 14 14 13 14 14 14 14 15 16 16 16 17 17 17 18 18 19 19 20 20 20 20 21 21 22 23 24 25 25 26 26 26 26 25 24 24 24 24 24 23 23 23 24 24 25 25 25 25 26
8 9 9 9 9 10 10 11 12 13 13 13 13 13 13 13 13 13 14 14 14 14 14 14 15 15 15 16 16 16 17 17 18 18 18 19 20 20 21 21 21 21 21 21 22 23 24 25 26 26 27 27 26 25 24 24 24 23 23 23 23 23 24 24 24 25 25 26 26
8 9 9 9 10 10 11 12 12 13 13 13 13 13 13 13 13 14 14 14 14 14 15 15 15 16 16 17 17 17 17 18 18 18 19 19 20 21 21 21 21 21 21 21 22 24 25 26 26 26 27 27 26 25 24 24 23 23 23 23 23 24 24 24 24 25 25 26 26
8 9 9 10 10 11 11 12 12 13 13 13 13 13 13 14 14 14 14 14 14 14 14 15 15 16 17 17 17 18 18 18 18 19 20 20 20 21 21 21 21 20 21 22 23 24 25 26 26 26 27 27 26 25 24 23 22 22 22 23 23 23 24 24 25 25 25 26 26
9 9 10 10 11 11 11 12 13 13 13 13 13 13 14 14 15 15 14 14 14 14 15 15 15 16 17 17 17 18 19 19 19 19 20 21 21 21 21 21 21 21 21 22 23 24 25 25 26 26 27 27 25 24 23 23 22 22 23 23 23 24 24 24 25 25 25 26 26
9 10 10 10 11 11 12 13 13 14 14 14 14 14 14 14 15 15 15 15 15 15 15 16 16 16 17 17 17 18 19 20 20 20 20 21 21 22 22 22 22 22 22 23 24 24 24 25 26 26 26 26 24 23 23 23 23 23 23 23 24 24 24 25 25 25 25 25 25
10 10 10 11 11 12 12 13 14 14 14 14 14 14 15 15 15 15 15 15 15 15 16 16 17 17 17 18 18 18 19 20 20 21 21 21 21 22 23 23 23 23 23 23 23 24 24 25 25 26 26 25 23 23 22 22 22 23 23 24 24 24 24 25 25 25 25 25 25
10 10 11 11 12 13 13 14 14 14 14 14 14 15 15 15 15 15 15 15 16 16 17 17 17 18 18 18 19 19 19 20 20 21 21 21 21 22 23 23 23 23 23 23 23 23 24 24 25 25 25 24 23 23 22 22 22 22 23 23 24 24 24 24 24 24 25 25 26
10 11 11 12 13 13 14 14 14 14 14 14 15 15 15 15 15 15 15 15 16 17 17 18 18 18 18 19 19 20 20 20 20 21 21 21 21 22 23 24 24 23 23 23 23 23 23 24 24 24 24 24 23 23 22 22 22 22 22 23 24 24 24 24 24 25 25 26 27
11 11 12 13 13 14 14 14 14 14 14 15 15 15 15 15 15 15 15 15 16 17 18 18 18 19 19 20 20 20 20 20 20 20 21 21 21 22 23 24 24 23 23 22 22 23 23 23 23 24 24 23 23 22 22 22 22 22 23 23 24 24 24 24 25 25 26 26 26
11 12 13 13 14 14 14 14 14 14 14 15 15 15 16 15 15 16 16 16 16 17 17 18 19 19 20 20 21 21 21 21 20 20 21 21 22 22 22 23 23 23 22 22 22 22 22 22 23 23 23 23 22 22 21 21 22 22 23 23 24 24 25 25 26 26 26 26 26
12 13 14 14 14 14 14 14 14 14 14 15 15 15 15 15 16 16 16 17 17 17 17 18 19 19 20 20 21 21 22 22 21 21 21 21 22 22 22 22 23 23 22 21 21 21 22 22 22 23 23 22 22 21 21 21 21 22 23 24 24 25 26 27 27 27 26 26 26
Wind_Direction
86 85 83 81 76 72 67 62 59 56 53 49 45 40 36 34 31 25 21 19 17 12 8 4 2 1 360 359 359 357 356 353 352 350 349 348 347 348 349 348 347 346 344 342 342 341 340 339 336 331 326 324 323 322 322 321 322 321 320 319 318 316 315 313 312 312 312 312 310
87 84 80 76 71 66 62 57 53 49 47 44 43 40 37 34 31 25 20 17 14 11 6 360 358 355 354 354 355 354 352 351 350 349 347 345 345 346 346 345 344 343 342 340 340 339 337 336 332 327 323 322 322 322 322 321 321 321 320 319 317 316 314 312 312 312 311 310 310
84 80 76 72 68 64 61 58 52 47 42 40 40 39 37 33 30 26 20 14 11 8 4 357 352 351 351 351 352 351 350 348 348 348 346 343 343 343 343 342 341 340 339 338 337 336 334 332 329 324 321 320 321 321 321 321 322 321 320 319 317 315 312 310 310 310 310 309 308
82 78 75 72 69 65 62 58 53 46 40 37 37 37 35 32 30 27 21 13 6 2 359 354 350 349 349 349 349 348 347 346 347 346 344 342 340 340 339 339 337 336 335 334 333 332 331 329 325 320 318 318 319 319 319 320 321 320 318 317 315 312 310 308 308 308 307 306 306
79 75 71 67 63 59 55 53 50 43 38 37 37 34 30 29 28 25 18 8 359 355 353 352 349 347 347 346 346 345 344 344 344 344 342 339 337 337 336 336 334 333 332 331 330 329 328 327 322 317 316 317 317 316 316 318 318 318 316 314 312 309 307 306 306 305 304 303 303
77 71 65 60 56 52 49 47 44 40 38 39 39 36 29 26 24 19 11 359 352 348 349 350 348 346 344 344 345 344 343 342 342 340 338 336 334 334 333 332 331 330 329 328 327 327 326 325 320 316 315 315 314 314 314 316 316 315 314 312 309 307 305 304 303 302 301 300 301
77 71 64 57 51 47 45 42 39 38 38 37 36 34 29 24 21 15 7 357 349 346 346 347 346 345 344 345 345 344 342 340 338 336 334 332 330 330 329 329 328 328 327 326 326 325 325 323 319 316 315 315 314 313 314 315 313 312 310 308 307 305 302 301 300 300 299 299 299
76 70 62 52 45 41 40 39 40 39 36 32 28 26 22 17 14 10 3 355 348 346 345 345 344 343 343 343 342 340 339 337 335 333 331 329 327 326 326 326 326 325 325 325 324 324 323 321 317 315 314 314 313 312 312 312 310 308 306 305 304 303 300 299 299 298 298 298 298
75 67 57 47 40 35 34 35 39 39 34 26 21 18 14 10 7 3 357 350 346 344 344 341 340 340 340 340 339 337 336 334 332 330 328 326 325 325 324 324 324 323 323 324 323 322 321 318 316 314 314 313 311 310 310 309 308 306 304 303 302 301 299 298 298 298 297 297 297
79 68 56 45 36 31 30 32 32 31 27 20 15 11 8 4 2 357 351 345 345 343 340 336 337 338 338 336 335 334 333 331 329 327 325 324 322 322 323 323 322 322 322 322 322 321 319 317 314 312 312 311 310 309 308 307 305 304 303 301 300 299 298 297 298 297 297 297 296
82 70 56 44 33 29 29 29 24 21 18 14 11 9 5 1 356 351 346 344 344 339 334 332 335 337 337 334 332 331 329 327 325 324 321 320 319 320 320 320 320 320 320 320 320 319 317 315 313 311 311 310 309 308 307 306 305 303 301 300 298 298 298 298 298 298 298 297 297
77 59 45 36 29 29 27 22 14 12 12 10 8 6 2 356 351 346 343 342 338 333 330 331 334 336 335 331 329 327 326 324 322 320 318 316 317 317 318 318 318 318 319 319 318 317 315 313 311 310 310 310 309 308 307 306 305 303 301 300 300 299 298 299 299 299 298 298 297
63 45 34 29 27 25 21 13 8 7 8 6 3 1 358 352 345 342 340 337 333 330 330 331 332 333 331 327 326 324 323 321 319 316 314 314 315 316 317 317 318 318 318 317 317 315 313 311 310 309 308 309 308 307 306 305 304 303 302 302 301 300 300 300 300 300 299 298 297
44 34 28 23 24 22 17 8 6 5 4 2 359 357 354 348 342 338 336 333 330 330 330 330 330 328 326 324 322 321 319 317 314 312 311 312 313 315 316 317 317 318 317 317 316 314 312 310 309 309 308 307 307 306 305 304 303 302 302 301 301 301 301 300 301 300 300 299 298
34 23 17 17 20 20 16 10 5 2 360 357 353 352 349 344 338 334 332 331 330 330 329 329 326 324 323 322 320 318 316 313 310 309 310 312 313 315 316 317 317 317 317 316 314 313 311 310 309 309 308 307 307 306 305 304 303 302 301 301 300 301 301 301 301 301 300 299 299
28 15 11 13 17 19 17 11 4 359 356 352 349 347 344 340 335 332 331 331 330 329 328 325 323 322 321 320 317 316 314 311 309 309 311 313 314 316 316 316 316 316 316 315 314 313 311 311 310 309 309 307 307 306 305 304 303 302 301 301 300 300 300 300 301 301 300 300 299
21 10 8 11 15 17 16 11 4 357 351 347 344 342 339 336 333 332 331 330 330 327 325 324 322 320 318 316 315 314 313 311 310 310 312 313 314 315 315 315 314 314 314 314 313 312 312 312 311 310 309 308 307 306 305 305 304 303 302 301 301 300 300 300 300 300 300 300 299
13 6 6 10 12 13 10 6 359 353 347 343 340 338 336 334 333 332 331 330 328 326 324 322 321 319 316 313 313 313 312 311 311 310 311 312 313 313 313 312 312 312 312 312 312 312 312 313 313 312 311 309 308 306 306 305 304 303 302 302 301 300 300 300 300 300 300 300 299
6 5 6 8 10 8 4 359 353 346 342 339 336 335 335 334 333 332 331 329 327 325 323 322 321 318 315 313 312 312 311 310 310 310 310 311 311 311 310 310 311 311 311 311 311 311 312 313 314 313 312 311 309 308 306 305 304 303 302 302 301 301 300 300 300 300 299 299 299
360 2 3 3 4 2 357 351 346 341 338 337 336 335 335 335 334 333 330 327 326 325 324 322 319 316 314 313 312 312 311 310 310 309 309 309 309 309 309 309 309 310 310 310 310 312 313 314 315 314 313 311 310 308 307 306 305 304 303 302 302 301 301 301 300 300 300 300 300
356 358 358 358 358 355 350 344 340 338 337 336 336 336 336 336 335 332 329 327 327 326 324 321 317 314 313 312 312 311 310 309 309 308 308 308 307 306 307 308 309 309 310 310 311 313 314 315 315 315 313 311 310 309 308 307 306 305 304 302 302 301 301 301 301 301 301 301 301
352 353 354 354 352 348 343 339 338 338 338 338 338 338 338 336 334 331 330 328 327 325 322 318 314 312 312 312 311 310 309 308 307 306 305 305 305 305 306 308 309 310 310 311 312 314 316 316 316 315 313 312 310 309 308 307 306 305 304 303 302 302 302 302 302 302 302 302 302
350 352 351 349 346 342 340 338 338 339 340 340 340 339 338 335 333 332 330 328 326 322 319 316 313 312 311 311 310 308 307 305 305 304 303 303 304 305 307 308 309 310 311 312 313 315 317 317 316 315 313 312 310 309 308 307 307 305 304 304 303 303 303 303 303 303 303 304 304
350 349 348 345 342 340 339 339 340 341 341 341 341 339 337 335 334 332 330 327 323 320 317 315 313 311 311 310 307 305 304 303 303 303 304 304 305 307 309 310 311 311 311 311 312 314 316 316 315 315 314 312 311 309 309 307 306 305 305 304 304 304 304 304 304 304 304 305 305
347 346 344 342 341 340 340 341 342 342 342 341 341 339 338 335 333 331 328 325 322 319 316 314 312 311 310 308 305 302 301 302 303 304 305 306 307 309 311 312 312 312 311 310 311 312 313 313 314 313 313 312 311 310 308 307 306 305 304 304 304 304 304 305 305 305 306 306 307
343 342 342 341 343 343 342 342 342 342 342 341 340 339 337 335 333 330 326 323 320 318 316 314 312 310 308 306 303 302 302 302 303 304 306 307 309 311 312 312 312 311 310 309 311 312 313 312 313 312 312 311 311 310 309 307 306 305 304 304 304 304 305 305 306 307 308 308 308
340 340 342 344 345 343 341 341 341 342 341 341 339 337 335 334 331 328 324 321 318 318 316 314 312 310 307 304 303 303 304 304 305 305 306 308 309 311 312 312 311 310 310 309 311 312 312 312 313 313 312 312 311 310 309 307 306 306 305 304 304 304 305 306 307 308 309 309 309
339 341 345 347 344 340 339 340 341 340 339 339 337 336 334 333 329 325 321 319 318 317 316 313 311 309 307 306 305 305 305 306 307 307 308 309 309 310 311 311 311 310 309 309 310 311 312 313 313 313 313 313 312 310 309 307 307 306 306 305 305 305 306 307 308 309 309 309 309
340 344 346 345 340 338 338 338 339 338 338 338 336 335 333 330 326 323 320 318 317 315 314 312 311 309 308 306 306 306 307 307 309 309 310 310 310 310 310 310 310 309 309 309 310 311 312 313 313 313 313 313 313 311 309 308 307 307 306 306 306 306 307 308 309 309 309 308 308
344 346 344 340 337 336 336 337 337 337 337 336 334 332 330 327 324 322 319 318 316 314 312 311 309 307 306 306 307 308 308 309 310 310 310 310 310 310 310 310 309 309 309 309 310 311 313 313 313 313 314 314 314 312 310 308 307 307 306 306 306 307 308 308 308 308 307 307 307
346 345 341 338 335 335 334 335 336 336 335 333 331 329 327 324 322 320 319 317 315 313 312 310 307 305 305 307 308 308 309 310 311 310 310 310 310 310 310 309 309 308 308 309 311 312 313 314 314 314 315 315 315 313 311 309 308 307 306 306 307 308 308 308 308 307 306 306 306
345 343 339 335 333 333 333 333 333 333 332 330 328 326 324 322 321 320 318 317 315 314 312 310 308 308 309 310 310 310 310 310 310 310 310 310 309 309 309 309 309 309 309 310 312 313 314 314 314 315 316 317 316 314 311 310 308 307 307 307 307 308 308 308 307 306 305 305 305
342 340 337 333 331 331 331 331 331 330 330 328 327 325 323 322 320 320 319 318 316 313 311 310 310 310 310 311 311 311 310 310 310 309 309 309 309 309 309 309 309 309 310 311 312 313 314 315 315 316 317 318 317 314 312 311 309 308 308 308 308 308 308 307 306 305 304 304 303
339 337 334 331 329 328 328 328 329 328 328 327 325 324 323 322 321 320 318 316 315 313 311 309 309 309 309 309 309 309 309 310 309 309 309 309 309 308 308 309 309 309 310 312 313 314 315 315 316 317 318 318 317 315 313 312 311 310 310 309 309 308 308 307 306 305 304 303 302
337 334 330 328 326 326 326 327 327 327 327 325 324 323 323 322 320 319 317 315 314 311 310 309 309 309 308 309 309 309 309 309 309 309 309 309 309 309 308 308 308 309 311 312 313 314 315 316 317 318 319 319 318 316 314 313 313 312 311 311 310 309 308 307 306 305 303 302 301
334 331 327 325 325 324 325 325 326 325 324 323 322 322 322 321 320 317 316 315 313 311 309 310 310 310 310 310 310 310 309 309 309 309 309 309 309 309 309 309 309 311 312 313 314 315 316 316 317 318 319 319 318 317 316 315 314 313 312 311 310 309 309 308 306 305 303 302 302
330 328 325 323 323 323 324 324 324 323 322 321 321 321 321 320 318 316 315 315 313 311 311 311 311 310 310 310 310 309 309 308 308 308 308 309 309 309 309 309 310 311 312 313 314 315 316 317 318 319 320 320 319 318 317 316 315 313 312 311 310 310 309 308 307 306 304 303 303
326 324 323 321 321 322 323 323 322 320 319 319 320 320 319 318 316 315 315 314 313 312 311 311 310 310 310 310 309 308 308 307 307 307 308 309 309 309 309 309 310 311 312 312 313 314 316 317 318 319 320 320 319 318 318 316 315 313 312 311 311 310 309 309 308 307 306 305 305
323 322 321 320 320 320 321 321 320 318 318 318 319 318 318 316 314 313 313 313 311 310 309 309 309 308 309 309 309 308 308 307 307 307 308 308 309 310 309 309 309 310 311 312 313 314 315 317 318 320 321 320 320 319 318 316 314 313 312 312 311 311 311 310 309 308 307 306 306
322 321 320 320 319 319 319 318 317 317 317 317 317 316 315 313 311 311 312 311 310 309 308 307 307 308 309 310 309 309 308 308 308 308 309 309 309 310 309 308 308 309 310 311 312 314 315 317 319 321 322 321 321 320 318 316 314 313 313 313 313 313 312 312 311 310 309 308 308
321 320 319 319 319 319 318 316 316 316 317 316 314 313 312 310 310 310 311 311 310 309 308 307 308 309 309 310 309 308 308 309 309 310 310 310 310 310 310 309 308 309 310 311 312 314 315 317 319 321 322 322 321 320 318 316 315 314 313 314 314 313 313 313 312 311 310 310 309
Height
794 794 794 794 794 794 794 793 793 793 793 793 793 793 793 793 793 792 792 792 791 791 790 790 789 789 788 787 786 785 785 784 783 782 781 780 780 779 777 776 775 775 774 773 771 770 769 768 767 766 765 764 763 762 761 760 759 757 756 755 754 752 751 750 748 747 746 745 744
794 794 794 794 794 794 794 794 794 793 793 793 793 793 793 793 793 792 792 792 791 791 790 790 789 788 788 787 786 785 784 784 783 782 781 780 779 778 777 776 775 774 773 772 771 770 769 768 767 765 765 763 762 761 760 759 758 757 755 754 753 752 750 749 747 746 745 744 742
794 794 794 794 794 794 794 794 794 794 794 794 793 793 793 793 792 792 792 792 791 791 790 790 789 788 787 786 785 785 784 783 782 781 780 780 779 778 777 776 775 774 773 772 771 770 769 767 766 765 764 763 762 760 759 758 757 756 755 753 752 751 749 748 746 745 744 743 741
794 794 794 794 794 794 794 794 794 794 794 794 794 793 793 792 792 792 792 792 791 790 790 789 788 787 787 786 785 784 783 782 781 780 780 779 778 777 776 775 774 773 772 771 770 769 768 767 765 765 763 762 761 760 759 757 756 755 754 753 751 750 749 747 746 744 743 741 740
795 794 794 794 794 794 794 794 794 794 794 794 794 793 793 792 792 792 792 791 791 790 790 789 788 787 786 785 785 784 783 782 781 780 779 779 778 777 776 775 774 773 772 771 770 768 767 766 765 764 763 761 760 759 758 757 755 755 753 752 750 749 748 746 745 743 742 740 739
795 795 794 794 794 795 795 795 794 794 794 794 794 793 793 792 792 791 791 791 791 790 789 788 787 787 786 785 784 783 782 781 780 780 779 778 777 776 775 774 773 772 771 770 769 768 767 765 764 763 762 761 760 758 757 756 755 754 752 751 750 748 747 745 744 742 741 740 738
795 795 795 795 795 795 795 795 794 794 794 794 794 793 793 792 792 791 791 791 790 790 789 788 787 786 785 785 784 783 782 781 780 780 779 778 777 776 775 774 773 772 771 770 768 767 766 765 764 762 761 760 759 757 756 755 754 753 751 750 748 747 746 744 743 741 740 738 737
795 795 795 795 795 795 795 795 795 794 794 794 794 793 793 792 791 791 791 790 790 789 788 787 787 786 785 784 783 782 782 781 780 779 778 777 776 775 774 773 772 771 770 769 768 766 765 764 763 762 760 759 758 756 755 754 753 751 750 749 747 746 745 743 741 740 738 737 735
795 795 795 795 795 795 795 795 795 794 794 794 793 793 792 792 791 791 790 790 789 789 788 787 786 785 785 784 783 782 781 780 780 779 778 777 776 775 774 773 771 770 769 768 767 765 765 763 762 761 760 758 757 755 754 753 752 750 749 747 746 744 743 742 740 738 737 735 734
795 795 795 795 795 795 795 795 795 794 794 793 793 792 792 791 791 790 790 790 789 788 787 787 786 785 784 784 783 782 781 780 779 778 777 776 775 774 773 772 771 770 768 767 766 765 764 762 761 760 759 757 756 754 753 752 750 749 747 746 744 743 741 740 739 737 735 734 732
796 796 796 795 795 795 795 795 795 794 793 793 792 792 791 791 790 790 790 789 789 788 787 786 785 785 784 783 782 781 780 780 779 778 777 776 775 774 772 771 770 769 768 766 765 764 763 761 760 759 757 756 755 753 752 750 749 748 746 744 743 741 740 738 737 735 734 732 730
796 796 796 795 795 795 795 795 794 794 793 792 792 791 791 790 790 790 790 789 788 788 787 786 785 784 784 783 782 781 780 779 778 777 776 775 774 773 772 770 769 768 767 765 764 763 762 760 759 757 756 755 754 752 750 749 747 746 744 743 741 740 738 736 735 734 732 730 729
796 796 796 795 795 795 795 795 794 793 793 792 791 791 790 790 790 790 789 789 788 787 786 785 785 784 783 782 781 780 780 779 778 777 775 775 773 772 771 770 768 767 766 765 763 762 760 759 758 756 755 753 752 750 749 748 746 744 743 741 739 738 736 735 733 732 730 729 727
796 796 796 795 795 795 795 794 794 793 792 792 791 790 790 790 789 789 789 788 787 787 786 785 784 783 783 782 781 780 779 778 777 776 775 774 773 771 770 769 767 766 765 763 762 761 760 758 757 755 754 752 750 749 748 746 745 743 741 739 738 736 734 733 731 730 728 727 725
796 796 795 795 795 795 794 794 793 793 792 791 791 790 790 789 789 789 788 788 787 786 785 785 784 783 782 781 780 779 778 777 776 775 774 773 772 770 769 768 766 765 764 762 761 760 758 757 755 754 752 750 749 747 746 744 743 741 740 738 736 734 733 731 730 728 726 725 723
796 796 795 795 795 794 794 793 793 793 792 791 790 790 789 789 789 788 787 787 786 785 785 784 783 782 781 780 780 779 778 777 775 775 773 772 770 769 768 766 765 764 762 761 760 758 757 755 754 752 751 749 747 745 744 743 741 740 738 736 735 733 731 729 728 726 725 723 721
796 796 795 795 794 794 793 793 793 792 791 791 790 790 789 789 788 787 787 786 785 785 784 783 782 782 781 780 779 778 777 776 775 773 772 771 770 768 767 765 764 763 761 760 758 757 755 754 752 751 749 748 746 744 742 741 739 738 736 734 733 731 730 728 726 725 723 721 720
796 795 795 794 794 793 793 792 792 791 791 790 790 789 789 788 787 787 786 786 785 784 783 783 782 781 780 779 778 777 776 775 774 772 771 770 768 767 765 764 763 761 760 758 757 755 754 752 751 749 748 746 744 743 741 739 737 736 734 732 731 729 728 726 724 723 721 719 718
795 795 795 794 793 793 792 792 791 791 790 790 789 789 788 788 787 786 785 785 784 784 783 782 781 780 779 778 777 776 775 774 772 771 770 769 767 766 764 763 761 760 759 757 755 754 752 751 749 748 746 744 743 741 739 738 736 734 732 731 729 727 725 724 722 721 720 718 716
795 795 794 793 793 792 792 791 791 790 790 790 789 788 788 787 786 786 785 784 784 783 782 781 780 779 778 777 776 775 774 772 771 770 769 767 766 765 763 762 760 759 757 755 754 752 751 749 748 746 745 743 741 739 737 735 734 732 730 729 727 725 724 722 720 719 717 716 714
795 794 793 793 792 792 791 791 791 790 790 789 788 788 787 786 786 785 784 784 783 782 781 780 779 778 777 776 775 774 772 771 770 769 767 766 765 763 762 760 759 757 755 754 753 751 750 748 746 745 743 741 739 738 736 734 732 730 729 727 725 723 722 720 719 717 715 714 713
794 793 793 792 792 792 791 791 790 790 789 788 788 787 786 786 785 784 784 783 782 781 780 780 778 777 776 775 774 772 771 770 769 767 766 765 763 762 760 759 757 755 754 753 751 750 748 746 745 743 742 740 738 736 734 732 730 728 726 725 723 721 720 718 717 715 714 712 711
794 793 792 792 792 791 791 791 790 790 789 788 787 786 786 785 784 784 783 782 781 780 780 779 777 776 775 774 772 771 770 769 767 766 765 764 762 760 759 758 756 754 753 751 750 748 747 745 743 742 740 738 736 734 732 730 729 727 725 723 721 719 718 716 715 713 711 710 709
793 793 792 792 792 791 791 790 790 789 788 787 786 786 785 785 784 783 782 781 780 780 779 777 776 775 774 772 771 770 769 768 766 765 764 762 761 759 758 756 755 753 751 750 749 747 746 744 742 740 739 737 735 733 731 729 727 725 723 721 719 717 715 714 713 711 710 708 707
793 792 792 792 791 791 790 790 789 788 788 787 786 785 785 784 783 782 781 780 780 779 778 776 775 774 773 771 770 769 768 767 765 764 762 761 759 758 756 755 753 751 750 748 747 746 745 744 742 740 738 735 733 731 729 727 725 724 721 720 717 715 713 712 710 709 708 707 705
793 792 792 792 791 791 790 790 789 788 787 786 785 785 784 783 782 781 780 780 779 778 776 775 774 773 772 770 769 768 767 765 764 762 761 759 757 756 755 753 751 750 748 747 745 744 743 742 740 739 737 735 732 730 728 725 724 722 720 718 716 714 712 710 708 707 706 705 704
793 792 792 791 791 790 790 789 788 787 786 786 785 784 783 782 781 780 780 779 778 776 775 774 773 772 770 769 768 767 765 764 763 761 759 758 756 754 753 751 750 749 747 745 744 743 741 740 739 737 736 734 732 729 727 724 722 720 718 716 714 712 710 709 707 705 704 703 702
792 792 792 791 791 790 790 789 788 787 786 785 784 783 783 782 781 780 779 778 777 775 775 773 772 771 770 768 767 765 764 763 761 760 758 756 755 753 751 750 749 747 745 744 742 741 740 738 737 735 734 733 730 728 725 723 720 718 716 715 713 711 709 707 706 704 703 702 700
792 792 791 791 790 790 789 788 787 786 785 785 784 783 782 781 780 779 778 777 776 775 774 772 771 770 769 767 766 764 763 761 760 758 756 755 753 751 750 749 747 745 744 742 741 740 738 737 735 734 732 731 729 727 724 722 719 717 715 713 711 710 708 706 705 704 702 701 699
792 791 791 790 790 789 789 788 787 786 785 784 783 782 781 780 779 778 777 776 775 774 773 771 770 769 767 766 765 763 761 760 758 756 755 753 751 750 748 747 745 744 742 741 739 738 736 735 733 732 730 729 727 725 723 720 718 716 714 712 710 708 707 705 704 703 701 700 698
791 791 790 790 790 789 788 787 786 785 785 783 782 781 780 780 779 777 776 775 774 773 771 770 769 768 766 765 763 762 760 758 756 755 753 752 750 748 747 745 744 742 740 739 738 736 735 733 732 730 729 727 725 724 721 719 717 715 712 710 709 707 706 705 703 702 700 699 697
791 790 790 790 789 788 788 787 786 785 784 783 782 781 780 779 778 776 775 774 773 771 770 769 768 766 765 763 762 760 759 757 755 753 752 750 749 747 745 744 742 740 739 738 736 735 733 732 730 728 727 725 724 722 720 717 715 713 711 709 708 706 705 704 702 700 699 697 696
790 790 790 789 789 788 787 786 785 784 783 782 781 780 779 778 776 775 774 773 772 770 769 768 767 765 764 762 760 758 757 755 754 752 750 749 747 745 744 742 740 739 737 736 735 733 732 730 728 727 725 724 722 720 718 715 714 711 710 708 706 705 704 702 701 699 698 696 694
790 790 790 789 788 787 786 785 785 783 782 781 780 779 778 777 775 774 773 772 771 770 768 767 765 764 762 761 759 757 755 754 752 750 749 747 745 744 742 740 739 737 736 735 733 732 730 729 727 725 724 722 720 718 716 714 712 710 708 706 705 704 702 701 699 698 696 695 693
790 790 789 788 788 787 786 785 784 783 781 780 779 778 777 776 775 773 772 771 770 769 767 766 764 763 761 759 758 756 754 752 750 749 747 746 744 742 740 739 737 736 735 733 732 730 729 727 725 724 722 720 719 716 714 712 710 708 707 705 704 702 701 699 698 696 695 693 691
790 789 789 788 787 786 785 784 783 782 781 780 778 777 776 775 774 772 771 770 769 767 766 764 763 761 760 758 756 755 753 751 749 747 746 745 743 740 739 737 736 734 733 732 730 729 728 726 724 723 721 719 717 715 713 711 709 707 705 704 702 700 699 697 696 694 693 691 690
789 789 788 787 786 785 784 783 782 781 780 779 778 776 775 774 773 771 770 769 768 766 765 763 761 760 758 756 755 753 751 750 748 746 744 743 741 739 737 735 734 733 731 730 729 728 726 725 723 722 720 718 716 714 712 710 708 706 704 703 701 699 697 696 694 692 691 689 688
789 788 787 786 785 785 784 782 781 780 779 778 777 775 774 773 772 771 770 768 767 765 763 761 760 758 756 755 753 751 750 748 747 745 743 741 740 738 736 734 732 731 730 729 727 726 725 724 722 721 719 717 715 713 711 709 707 705 703 701 699 697 696 694 692 690 689 687 686
788 787 787 786 785 784 783 782 780 780 778 777 776 775 774 772 771 770 769 767 766 764 762 760 758 757 755 753 751 750 748 747 745 744 742 740 738 737 735 733 731 729 728 727 726 725 724 723 721 720 718 716 714 712 710 708 706 704 702 700 698 696 694 693 691 689 687 685 684
787 787 786 785 784 783 782 781 780 779 778 776 775 774 773 772 770 769 767 766 765 763 761 759 757 755 754 752 750 748 746 745 743 742 740 738 737 735 734 732 730 728 727 726 725 724 722 721 720 719 717 715 713 711 710 707 705 703 701 699 697 695 692 691 689 687 685 683 682
786 786 785 784 783 782 781 780 779 778 777 776 775 773 772 771 770 768 766 765 763 761 760 758 755 754 752 751 749 747 745 743 741 740 739 737 735 734 732 730 728 727 725 725 724 722 721 720 719 717 716 714 713 711 709 707 704 702 700 698 696 694 691 689 687 686 684 682 680